Home   Weather   Lethbridge   Past weeks

Flag for Canada Past Weather in Lethbridge, Alberta, Canada — Yesterday and Last 2 Weeks

Now
50 °F

Broken clouds.


Feels Like: 48 °F
Forecast: 47 / 63 °F
Wind: 6 mph from Southeast

Location: Lethbridge

Current Time: Sep 28, 2016 at 11:17:42 AM

Latest Report: Sep 28, 2016 at 10:00 AM


Visibility: 30 mi

Pressure: 30.34 "Hg (27.31 "Hg at 872m altitude)

Humidity: 62%

Dew Point: 37 °F

Location of LethbridgeLocation

Past Weather in Lethbridge — Graph

°F

Lethbridge Temperature Yesterday

Maximum temperature yesterday: 82 °F (at 1:00 PM)
Minimum temperature yesterday: 50 °F (at 5:00 AM)
Average temperature yesterday: 62 °F

High & Low Weather Summary for the Past Weeks

 TemperatureHumidityPressure
High82 °F (Sep 27, 1:00 PM)100% (Sep 22, 9:53 AM)30.36 "Hg (Sep 22, 9:53 AM)
Low34 °F (Sep 14, 7:00 AM)20% (Sep 16, 3:00 PM)29.57 "Hg (Sep 18, 3:00 AM)
Average55 °F61%30.03 "Hg
* Reported Sep 13 10:00 AM — Sep 28 10:00 AM, Lethbridge, Weather by CustomWeather, © 2016

Note: Actual official high and low records may vary slightly from our data, if they occured in-between our weather recording intervals... More about our weather records

Advertising

Lethbridge Weather History for the Previous 24 Hours

Scroll right to see more
 ConditionsComfort  
Time TempWeatherWind HumidityBarometerVisibility
10:00 AM
Wed, Sep 28
50 °FBroken clouds.6 mph62%30.34 "Hg30 mi
9:00 AM50 °FScattered clouds.5 mph62%30.35 "Hg40 mi
8:00 AM48 °FPartly sunny.5 mph71%30.36 "Hg30 mi
7:00 AM48 °FPassing clouds.3 mph71%30.36 "Hg25 mi
6:00 AM48 °FOvercast.5 mph71%30.35 "Hg9 mi
5:00 AM48 °FOvercast.5 mph71%30.35 "Hg9 mi
4:00 AM48 °FOvercast.8 mph71%30.35 "Hg9 mi
3:00 AM48 °FOvercast.7 mph71%30.35 "Hg9 mi
2:00 AM48 °FMostly cloudy.3 mph66%30.34 "Hg9 mi
1:00 AM50 °FMostly cloudy.7 mph58%30.29 "Hg9 mi
12:00 AM50 °FPassing clouds.8 mph54%30.27 "Hg9 mi
11:00 PM
Tue, Sep 27
54 °FOvercast.8 mph51%30.26 "Hg9 mi
10:00 PM54 °FOvercast.10 mph54%30.24 "Hg15 mi
9:00 PM55 °FPassing clouds.7 mph47%30.23 "Hg15 mi
8:00 PM54 °FPassing clouds.9 mph54%30.22 "Hg15 mi
7:00 PM57 °FPassing clouds.7 mph48%30.19 "Hg40 mi
6:00 PM61 °FPassing clouds.10 mph42%30.16 "Hg40 mi
5:00 PM63 °FPassing clouds.15 mph39%30.13 "Hg40 mi
4:00 PM66 °FPassing clouds.16 mph37%30.08 "Hg35 mi
3:00 PM68 °FScattered clouds.21 mph46%30.03 "Hg30 mi
2:00 PM70 °FPassing clouds.16 mph43%29.98 "Hg40 mi
1:00 PM82 °FScattered clouds.22 mph26%29.90 "Hg40 mi
12:00 PM81 °FScattered clouds.20 mph28%29.90 "Hg40 mi
11:00 AM77 °FPassing clouds.16 mph30%29.89 "Hg40 mi
Weather by CustomWeather, © 2016

See weather overviewHow to use our weather pages